[[{"header":{"parameterUnit":"m.s-1","parameterCategory":1,"la1":30.2991,"la2":30.254,"lo1":-89.0895,"lo2":-89.0444,"dy":0.0017,"dx":0.0017,"nx":28,"ny":28,"refTime":"2025-08-24T03:00:00:Z","depth":0,"parameterNumber":2,"parameterNumberName":"U-component_of_WINDS"},"data":[0,0,0,0,0,0,0,0,0,0,0,0,0,0,0,0,0,0,0,0,0,0,0,0,0,0,0,0,0,0,0,0,0,0,0,0,0,0,0,0,0,0,0,0,0,0,0,0,0,0,0,0,0,0,0,0,0,0,1.7858,1.7858,0,1.7887,1.7887,1.7887,1.7829,1.7827,1.7825,1.7823,1.7853,1.7856,1.7858,0,0,0,0,0,0,0,0,0,0,0,0,0,1.7753,1.7755,1.7858,1.7858,1.7858,1.7887,1.7887,1.7887,1.7829,1.7827,1.7824,1.7822,1.7852,1.7856,1.7859,0,0,0,0,0,0,0,0,0,0,0,0,0,1.7792,1.7756,1.7858,1.7833,1.7831,1.7886,1.7887,1.7887,1.7829,1.7826,1.7824,1.7821,1.7851,1.7855,1.7859,1.7941,0,0,1.7871,1.7873,0,0,0,0,0,0,0,0,1.779,1.7796,1.7836,1.7834,1.7832,1.7851,1.7861,1.7905,1.783,1.783,1.7823,1.7819,1.7855,1.7858,1.787,1.7942,1.7943,1.7871,1.7874,1.7875,1.7876,0,0,0,0,0,0,0,1.7787,1.7794,1.7869,1.7837,1.7834,1.782,1.7823,1.7869,1.7858,1.783,1.7825,1.783,1.7853,1.7866,1.787,1.7944,1.7871,1.7875,1.7877,1.7879,1.8085,1.8088,0,0,0,0,0,0,1.7788,1.7792,1.7868,1.787,1.7804,1.7825,1.7827,1.7848,1.7858,1.7856,1.7832,1.7827,1.7861,1.7866,1.7871,1.7967,1.7875,1.7879,1.7881,1.8081,1.8085,1.8089,0,0,0,0,0,0,1.7785,1.7795,1.7867,1.783,1.7838,1.7829,1.7853,1.785,1.7863,1.7859,1.7857,1.7847,1.7859,1.7866,1.7924,1.7967,1.7881,1.7884,1.8078,1.8083,1.8087,1.816,0,0,0,0,0,0,1.7783,1.7794,1.7825,1.7831,1.784,1.7919,1.7856,1.7853,1.787,1.7863,1.7873,1.7872,1.7857,1.7918,1.7928,1.7971,1.7887,1.8074,1.808,1.8085,1.8154,1.8167,1.8178,0,0,0,0,0,1.7779,1.7845,1.7827,1.7836,1.7879,1.7922,1.7927,1.7908,1.7874,1.7904,1.7902,1.7872,1.7961,1.7925,1.7935,1.798,1.8071,1.8078,1.8085,1.8148,1.8164,1.8177,0,0,0,0,0,0,1.7844,1.7845,1.7825,1.7895,1.7909,1.7912,1.795,1.7926,1.795,1.7943,1.7919,1.7922,1.7985,1.7988,1.7948,1.806,1.801,1.802,1.8055,1.807,1.8082,1.8079,1.7891,0,0,0,0,0,1.7867,1.7901,1.79,1.7962,1.797,1.7959,1.7977,1.7962,1.7975,1.7981,1.7982,1.7997,1.8028,1.8049,1.8078,1.8154,1.8156,1.8191,1.8203,1.8212,1.8221,1.8261,1.8277,1.8112,1.8112,1.8112,0,0,1.7913,1.7918,1.7941,1.7975,1.7984,1.802,1.7964,1.8005,1.8032,1.7987,1.8041,1.8044,1.8058,1.8126,1.8156,1.8131,1.8267,1.8221,1.8229,1.8232,1.827,1.8286,1.8299,1.8117,1.8116,1.8115,0,0,1.8016,1.8024,1.8075,1.8086,1.81,1.8092,1.8105,1.8112,1.8111,1.8166,1.8133,1.8165,1.822,1.8231,1.8244,1.8353,1.8326,1.8363,1.8426,1.8466,1.8479,1.849,1.8529,1.8543,1.8372,1.8372,1.8372,0,1.8072,1.8126,1.8105,1.8149,1.8165,1.8125,1.8178,1.8189,1.8212,1.8224,1.8196,1.8263,1.827,1.834,1.8367,1.8379,1.8392,1.8362,1.8478,1.849,1.85,1.8536,1.8551,1.8376,1.8376,1.8375,1.8375,0,1.8194,1.8232,1.8272,1.8295,1.8316,1.8363,1.835,1.8374,1.8357,1.8352,1.8409,1.8416,1.8446,1.8461,1.8445,1.8529,1.8513,1.8482,1.8432,1.852,1.8554,1.8568,1.8383,1.8381,1.838,1.8379,0,0,1.8338,1.8349,1.8365,1.8374,1.8388,1.8416,1.8463,1.8491,1.8512,1.8529,1.8568,1.8615,1.8587,1.8602,1.8587,1.8622,1.8708,1.8587,1.8587,1.8609,1.88,1.8823,1.8839,1.869,1.8693,1.8695,1.8799,0,1.844,1.8519,1.8502,1.858,1.8615,1.8578,1.8619,1.8632,1.8629,1.8658,1.8656,1.8689,1.865,1.8659,1.8692,1.869,1.8746,1.8683,1.8725,1.8727,1.8722,1.8857,1.8881,1.8978,1.8812,1.8814,1.8816,0,1.8569,1.8592,1.8673,1.8681,1.8694,1.8731,1.8756,1.8784,1.8798,1.8794,1.8811,1.879,1.8836,1.8786,1.885,1.8807,1.8824,1.8826,1.883,1.8832,1.8776,1.8863,1.9009,1.9023,1.8836,1.8835,1.8833,0,1.8666,1.8716,1.8771,1.8781,1.8791,1.8818,1.8824,1.8835,1.8853,1.8875,1.8887,1.8914,1.8929,1.8951,1.8938,1.8903,1.9004,1.8953,1.9002,1.9003,1.9024,1.9023,1.9175,1.9037,1.9036,1.9036,1.9036,0,1.8781,1.8832,1.8815,1.8848,1.8905,1.8885,1.8942,1.8943,1.8953,1.8987,1.8958,1.899,1.8971,1.9002,1.8993,1.9047,1.9054,1.9052,1.9048,1.9054,1.9054,1.9064,1.9057,1.904,1.9039,1.9038,1.9038,0,1.8898,1.8888,1.8946,1.8951,1.8954,1.8995,1.8999,1.9031,1.9027,1.907,1.9079,1.9072,1.9107,1.9097,1.9135,1.9128,1.9197,1.9185,1.9192,1.9189,1.9238,1.9234,1.9401,1.9422,1.9271,1.9272,1.9274,0,1.8972,1.901,1.902,1.904,1.9048,1.9081,1.9099,1.9082,1.9103,1.9122,1.9151,1.9184,1.9209,1.9267,1.9265,1.9295,1.9283,1.934,1.9287,1.9292,1.9283,1.9281,1.9285,1.935,1.9352,1.9353,1.9354,0,1.9104,1.9097,1.9125,1.9151,1.9174,1.9194,1.9212,1.923,1.9214,1.9239,1.9274,1.9294,1.9332,1.9365,1.9392,1.9398,1.9374,1.9371,1.9384,1.939,1.9392,1.9391,1.922,1.9367,1.9366,1.9365,1.9364,1.9364,1.9201,1.9233,1.9245,1.9277,1.9288,1.9305,1.9335,1.9335,1.9364,1.9394,1.9382,1.9423,1.9436,1.9469,1.9479,1.9511,1.9489,1.9508,1.9513,1.9517,1.9524,1.9388,1.9516,1.9516,1.9515,1.9515,1.9515,0,1.9331,1.9337,1.9366,1.9392,1.9417,1.9392,1.941,1.9433,1.9469,1.9484,1.9509,1.955,1.9582,1.9583,1.9613,1.9638,1.9628,1.9647,1.9644,1.9646,1.9541,1.9527,1.9654,1.9654,1.9654,1.9654,1.9654,1.9654,1.9401,1.9455,1.945,1.9509,1.9514,1.9554,1.9566,1.9582,1.9593,1.964,1.9666,1.9667,1.9677,1.9707,1.9735,1.9735,1.9747,1.977,1.9766,1.9668,1.9654,1.964,1.9627,1.9773,1.9773,1.9868,1.9869,1.9869]},{"header":{"parameterUnit":"m.s-1","parameterCategory":1,"la1":30.2991,"la2":30.254,"lo1":-89.0895,"lo2":-89.0444,"dy":0.0017,"dx":0.0017,"nx":28,"ny":28,"refTime":"2025-08-24T03:00:00:Z","depth":0,"parameterNumber":3,"parameterNumberName":"V-component_of_WINDS"},"data":[0,0,0,0,0,0,0,0,0,0,0,0,0,0,0,0,0,0,0,0,0,0,0,0,0,0,0,0,0,0,0,0,0,0,0,0,0,0,0,0,0,0,0,0,0,0,0,0,0,0,0,0,0,0,0,0,0,0,-0.9986,-0.9986,0,-1.0009,-1.0009,-1.001,-1.0025,-1.0026,-1.0026,-1.0026,-1.005,-1.005,-1.0051,0,0,0,0,0,0,0,0,0,0,0,0,0,-0.9955,-0.9956,-0.9986,-0.9986,-0.9986,-1.0009,-1.0009,-1.001,-1.0025,-1.0026,-1.0026,-1.0026,-1.0049,-1.005,-1.0051,0,0,0,0,0,0,0,0,0,0,0,0,0,-0.9973,-0.9956,-0.9986,-0.9997,-0.9998,-1.0009,-1.0009,-1.001,-1.0025,-1.0026,-1.0026,-1.0026,-1.0049,-1.005,-1.0051,-1.0052,0,0,-1.0053,-1.0054,0,0,0,0,0,0,0,0,-0.9972,-0.9974,-0.9995,-0.9996,-0.9998,-1.0015,-1.0007,-1.0024,-1.0025,-1.0015,-1.0026,-1.0026,-1.0038,-1.004,-1.0044,-1.0053,-1.0054,-1.0053,-1.0054,-1.0054,-1.0054,0,0,0,0,0,0,0,-0.997,-0.9973,-0.9995,-0.9995,-0.9997,-1.0001,-1.0004,-1.0011,-1.0025,-1.0016,-1.0017,-1.002,-1.0039,-1.0043,-1.0044,-1.0055,-1.0053,-1.0054,-1.0054,-1.0055,-1.0067,-1.0067,0,0,0,0,0,0,-0.9967,-0.9972,-0.9994,-0.9996,-0.9985,-1.0001,-1.0004,-1.0009,-1.0025,-1.0028,-1.002,-1.002,-1.0041,-1.0043,-1.0045,-1.0048,-1.0054,-1.0055,-1.0055,-1.0067,-1.0067,-1.0067,0,0,0,0,0,0,-0.9967,-0.9969,-0.9993,-0.9984,-0.9987,-1.0002,-1.0007,-1.0009,-1.0014,-1.0028,-1.0031,-1.0021,-1.0041,-1.0044,-1.005,-1.0049,-1.0055,-1.0056,-1.0067,-1.0067,-1.0067,-1.0054,0,0,0,0,0,0,-0.9966,-0.9969,-0.997,-0.9984,-0.9988,-0.9998,-1.0007,-1.001,-1.0015,-1.0016,-1.003,-1.0033,-1.0042,-1.0049,-1.0051,-1.005,-1.0056,-1.0068,-1.0067,-1.0067,-1.0054,-1.0053,-1.0052,0,0,0,0,0,-0.9965,-0.9965,-0.9969,-0.9972,-0.9989,-0.9998,-1.0,-1.0011,-1.0015,-1.0015,-1.0025,-1.0032,-1.0049,-1.005,-1.0052,-1.0051,-1.0068,-1.0067,-1.0067,-1.0055,-1.0053,-1.0052,0,0,0,0,0,0,-0.995,-0.9967,-0.9972,-0.9977,-0.9986,-1.0001,-1.0002,-1.0009,-1.0017,-1.0018,-1.0031,-1.0034,-1.0039,-1.0046,-1.0046,-1.0054,-1.0059,-1.0059,-1.0049,-1.0048,-1.0047,-1.0045,-1.0057,0,0,0,0,0,-0.9947,-0.9953,-0.9968,-0.9971,-0.9975,-0.9988,-0.9992,-0.9999,-1.0009,-1.0013,-1.0023,-1.0032,-1.0039,-1.0044,-1.0052,-1.0055,-1.0059,-1.0056,-1.0055,-1.0054,-1.0054,-1.0057,-1.0056,-1.0066,-1.0066,-1.0066,0,0,-0.9942,-0.9952,-0.9955,-0.9968,-0.9976,-0.9982,-0.9991,-0.9997,-1.0001,-1.0014,-1.0021,-1.0028,-1.0039,-1.0044,-1.0047,-1.005,-1.0052,-1.0054,-1.0053,-1.0053,-1.0056,-1.0056,-1.0055,-1.0066,-1.0066,-1.0066,0,0,-0.9935,-0.9943,-0.9947,-0.9954,-0.9966,-0.9974,-0.9975,-0.9989,-0.9994,-1.0001,-1.0011,-1.0017,-1.0029,-1.0037,-1.0042,-1.0038,-1.0045,-1.004,-1.0034,-1.0037,-1.0036,-1.0035,-1.0034,-1.0034,-1.004,-1.004,-1.004,0,-0.9927,-0.9936,-0.9947,-0.9953,-0.9958,-0.997,-0.9974,-0.9981,-0.9994,-0.9998,-1.0001,-1.0017,-1.0025,-1.0033,-1.0032,-1.0036,-1.0037,-1.0039,-1.0035,-1.0035,-1.0034,-1.0033,-1.0033,-1.004,-1.004,-1.004,-1.004,0,-0.9925,-0.9932,-0.9933,-0.9946,-0.9952,-0.9956,-0.9968,-0.9973,-0.998,-0.9988,-0.9995,-1.0005,-1.0015,-1.0018,-1.0024,-1.0026,-1.0028,-1.0033,-1.0039,-1.0033,-1.0032,-1.0032,-1.0039,-1.0039,-1.0039,-1.0039,0,0,-0.991,-0.9929,-0.9929,-0.9935,-0.9949,-0.9954,-0.9959,-0.9969,-0.9973,-0.9982,-0.9986,-0.9997,-1.0002,-1.0008,-1.0016,-1.0018,-1.0015,-1.0023,-1.0024,-1.0021,-1.0017,-1.0013,-1.0013,-1.002,-1.0019,-1.0019,-1.0016,0,-0.9905,-0.9915,-0.9926,-0.9932,-0.9938,-0.9949,-0.9954,-0.9962,-0.997,-0.9977,-0.9985,-0.9992,-0.9999,-1.0002,-1.0005,-1.0015,-1.0014,-1.0015,-1.0024,-1.0024,-1.0021,-1.0012,-1.0008,-1.0005,-1.0016,-1.0016,-1.0016,0,-0.9901,-0.991,-0.9916,-0.993,-0.9933,-0.9936,-0.9946,-0.9952,-0.9963,-0.9968,-0.9975,-0.9984,-0.999,-0.9995,-1.0003,-1.0004,-1.0008,-1.0013,-1.0013,-1.0015,-1.002,-1.0013,-1.0004,-1.0003,-1.0016,-1.0016,-1.0016,0,-0.989,-0.9903,-0.9908,-0.9913,-0.9929,-0.9931,-0.9938,-0.9948,-0.9954,-0.9962,-0.9966,-0.9975,-0.998,-0.9987,-0.9998,-1.0001,-1.0006,-1.0011,-1.0011,-1.001,-1.0011,-1.0011,-1.0002,-1.0014,-1.0014,-1.0014,-1.0014,0,-0.9884,-0.9887,-0.9903,-0.9907,-0.9911,-0.9923,-0.9927,-0.9935,-0.9944,-0.995,-0.996,-0.9965,-0.9979,-0.9985,-0.9994,-1.0,-1.0002,-1.0007,-1.0009,-1.0006,-1.0005,-1.0009,-1.001,-1.0014,-1.0014,-1.0014,-1.0014,0,-0.9871,-0.9882,-0.9889,-0.9903,-0.9907,-0.991,-0.9922,-0.9926,-0.9934,-0.9941,-0.9943,-0.9957,-0.9965,-0.9976,-0.9988,-0.9993,-0.9998,-1.0002,-0.9995,-0.9996,-0.9995,-0.9995,-0.9988,-0.9988,-0.9999,-0.9999,-0.9999,0,-0.9867,-0.987,-0.9884,-0.9889,-0.9895,-0.9902,-0.9907,-0.9919,-0.9924,-0.9936,-0.9939,-0.9948,-0.9956,-0.9968,-0.9979,-0.9988,-0.9992,-0.9989,-0.9993,-0.999,-0.9992,-0.9992,-0.9992,-0.9988,-0.9988,-0.9988,-0.9987,0,-0.9858,-0.9863,-0.987,-0.9879,-0.9886,-0.9893,-0.9902,-0.9905,-0.9919,-0.9924,-0.9932,-0.9938,-0.995,-0.9959,-0.997,-0.9977,-0.9984,-0.9986,-0.9986,-0.9983,-0.9979,-0.9981,-0.9992,-0.9986,-0.9986,-0.9986,-0.9986,-0.9986,-0.9849,-0.9852,-0.9863,-0.9871,-0.9879,-0.9886,-0.9891,-0.99,-0.9907,-0.9918,-0.9924,-0.9932,-0.9943,-0.9958,-0.9965,-0.9971,-0.9974,-0.9975,-0.9975,-0.9975,-0.9974,-0.9978,-0.9973,-0.9973,-0.9973,-0.9973,-0.9973,0,-0.9841,-0.9848,-0.9855,-0.9867,-0.9873,-0.9879,-0.9889,-0.9894,-0.9901,-0.991,-0.9918,-0.9927,-0.9936,-0.9948,-0.9957,-0.996,-0.9964,-0.9962,-0.9962,-0.9964,-0.997,-0.9969,-0.9959,-0.9959,-0.9959,-0.9959,-0.9959,-0.9959,-0.9837,-0.9843,-0.9849,-0.9859,-0.9867,-0.9875,-0.988,-0.9887,-0.9894,-0.9905,-0.9912,-0.9919,-0.993,-0.994,-0.9948,-0.9952,-0.9955,-0.9952,-0.9956,-0.9962,-0.9963,-0.9965,-0.9964,-0.9952,-0.9952,-0.9949,-0.9949,-0.9949]}]]